FW0671 Weather Reports


time (UTC)temp
C
wind
direction
speed
KPH
gust
KPH
rain 1hr
cm
rain 24hr
cm
rain mn
cm
humidity
%
barometer
mb
20190915134642 25 131 0.0 22.5 0.00 0.00 0.00 38 1013.9
20190915133124 25 153 6.4 16.1 0.00 0.00 0.00 38 1013.8
20190915131653 25 183 3.2 20.9 0.00 0.00 0.00 38 1014.0
20190915130153 25 133 0.0 11.3 0.00 0.00 0.00 38 1013.9
20190915124632 25 144 3.2 22.5 0.00 0.00 0.00 37 1014.1
20190915123157 25 136 3.2 17.7 0.00 0.00 0.00 38 1014.1
20190915121701 25 216 0.0 11.3 0.00 0.00 0.00 42 1014.3
20190915120130 25 238 1.6 16.1 0.00 0.00 0.00 41 1014.5
20190915114621 25 184 1.6 14.5 0.00 0.00 0.00 42 1014.6
20190915113128 24 190 1.6 19.3 0.00 0.00 0.00 43 1014.8
20190915111706 25 219 1.6 17.7 0.00 0.00 0.00 44 1015.0
20190915110116 23 117 3.2 14.5 0.00 0.00 0.00 41 1015.2
20190915104630 23 134 0.0 11.3 0.00 0.00 0.00 44 1015.4
20190915103128 23 149 1.6 12.9 0.00 0.00 0.00 44 1015.5
20190915101744 22 127 6.4 20.9 0.00 0.00 0.00 46 1015.6
20190915100105 22 219 1.6 16.1 0.00 0.00 0.00 46 1015.7
20190915094639 22 148 6.4 16.1 0.00 0.00 0.00 46 1016.0
20190915093124 22 138 0.0 9.7 0.00 0.00 0.00 50 1016.3
20190915091626 21 142 3.2 14.5 0.00 0.00 0.00 49 1016.6
20190915090102 21 138 1.6 11.3 0.00 0.00 0.00 50 1016.8
20190915084553 20 165 0.0 12.9 0.00 0.00 0.00 56 1017.0
20190915083134 20 144 3.2 16.1 0.00 0.00 0.00 56 1017.0
20190915081544 20 165 0.0 14.5 0.00 0.00 0.00 57 1017.1
20190915080036 19 138 0.0 16.1 0.00 0.00 0.00 59 1017.1
20190915074546 18 161 0.0 12.9 0.00 0.00 0.00 60 1017.1
20190915073012 18 190 0.0 3.2 0.00 0.00 0.00 65 1017.3
20190915071537 17 141 1.6 8.0 0.00 0.00 0.00 66 1017.4
20190915070006 17 225 0.0 4.8 0.00 0.00 0.00 67 1017.2
20190915064817 16 227 1.6 8.0 0.00 0.00 0.00 71 1017.0
20190915063152 15 233 3.2 9.7 0.00 0.00 0.00 72 1016.9
20190915061617 15 227 0.0 11.3 0.00 0.00 0.00 75 1016.8
20190915060139 14 132 0.0 8.0 0.00 0.00 0.00 78 1016.7
20190915054644 13 241 0.0 4.8 0.00 0.00 0.00 80 1016.6
20190915053103 12 241 0.0 4.8 0.00 0.00 0.00 83 1016.3
20190915051555 12 241 0.0 6.4 0.00 0.00 0.00 84 1016.0
20190915050108 11 245 0.0 4.8 0.00 0.00 0.00 83 1015.7
20190915044544 10 30 0.0 1.6 0.00 0.00 0.00 83 1015.3
20190915043029 10 30 0.0 1.6 0.00 0.00 0.00 82 1015.2
20190915041601 10 30 0.0 1.6 0.00 0.00 0.00 80 1015.2
20190915040017 10 30 0.0 0.0 0.00 0.00 0.00 79 1015.0
20190915034559 10 30 0.0 0.0 0.00 0.00 0.00 76 1014.9
20190915033023 10 30 0.0 0.0 0.00 0.00 0.00 72 1014.9
20190915031516 11 30 0.0 0.0 0.00 0.00 0.00 71 1014.8
20190915030010 11 30 0.0 0.0 0.00 0.00 0.00 70 1014.6
20190915024505 11 30 0.0 0.0 0.00 0.00 0.00 68 1014.4
20190915023002 12 30 0.0 0.0 0.00 0.00 0.00 64 1014.5
20190915021655 12 29 0.0 0.0 0.00 0.00 0.00 60 1014.3
20190915020122 12 30 0.0 3.2 0.00 0.00 0.00 53 1014.3
20190915014657 11 29 0.0 1.6 0.00 0.00 0.00 46 1014.1
20190915013135 11 29 0.0 1.6 0.00 0.00 0.00 45 1013.8
20190915011713 11 30 0.0 0.0 0.00 0.00 0.00 45 1013.5
20190915010209 11 30 0.0 0.0 0.00 0.00 0.00 45 1013.7
20190915004621 12 30 0.0 0.0 0.00 0.00 0.00 45 1013.8
20190915003056 12 30 0.0 0.0 0.00 0.00 0.00 46 1013.9
20190915001606 12 29 0.0 0.0 0.00 0.00 0.00 45 1013.8
20190915000154 13 29 0.0 0.0 0.00 0.00 0.00 43 1013.8
20190914234623 14 29 0.0 0.0 0.00 0.00 0.00 41 1013.9
20190914233237 15 30 0.0 1.6 0.00 0.00 0.00 40 1014.0
20190914231614 15 30 0.0 0.0 0.00 0.00 0.00 39 1013.7
20190914230111 15 30 0.0 3.2 0.00 0.00 0.00 38 1013.6
20190914224550 15 30 0.0 1.6 0.00 0.00 0.00 37 1013.6
20190914223037 16 29 0.0 4.8 0.00 0.00 0.00 37 1013.7
20190914221545 16 28 1.6 11.3 0.00 0.00 0.00 37 1013.7
20190914220048 16 22 0.0 6.4 0.00 0.00 0.00 36 1013.9
20190914214533 16 41 0.0 4.8 0.00 0.00 0.00 36 1013.7
20190914213040 16 30 1.6 8.0 0.00 0.00 0.00 35 1013.7
20190914211556 16 24 0.0 8.0 0.00 0.00 0.00 34 1013.8
20190914210043 17 22 0.0 4.8 0.00 0.00 0.00 34 1014.0
20190914204521 17 23 0.0 8.0 0.00 0.00 0.00 34 1013.9
20190914203027 17 11 0.0 3.2 0.00 0.00 0.00 33 1013.9
20190914201536 17 11 0.0 4.8 0.00 0.00 0.00 33 1013.9
20190914200020 17 24 0.0 4.8 0.00 0.00 0.00 31 1014.1
20190914194631 17 55 0.0 4.8 0.00 0.00 0.00 31 1014.0
20190914193033 17 102 0.0 3.2 0.00 0.00 0.00 30 1014.0
20190914191522 18 102 0.0 1.6 0.00 0.00 0.00 29 1014.0
20190914190055 18 103 0.0 1.6 0.00 0.00 0.00 29 1013.9
20190914184627 18 103 0.0 1.6 0.00 0.00 0.00 28 1013.8
20190914183039 18 103 0.0 4.8 0.00 0.00 0.00 28 1013.7
20190914181527 19 88 0.0 3.2 0.00 0.00 0.00 28 1013.5
20190914180013 19 103 0.0 9.7 0.00 0.00 0.00 28 1013.3
20190914174533 20 106 0.0 4.8 0.00 0.00 0.00 27 1013.0
20190914173020 20 103 0.0 6.4 0.00 0.00 0.00 27 1012.8
20190914171509 21 104 0.0 6.4 0.00 0.00 0.00 26 1012.5
20190914170013 21 111 0.0 11.3 0.00 0.00 0.00 25 1012.2
20190914164512 21 127 0.0 9.7 0.00 0.00 0.00 24 1011.9
20190914163048 22 101 1.6 11.3 0.00 0.00 0.00 23 1011.7
20190914161511 22 88 1.6 11.3 0.00 0.00 0.00 23 1011.5
20190914160038 23 123 3.2 16.1 0.00 0.00 0.00 22 1011.2
20190914154521 24 134 3.2 17.7 0.00 0.00 0.00 21 1011.1
20190914153011 25 194 4.8 16.1 0.00 0.00 0.00 21 1011.0
20190914151504 25 146 8.0 22.5 0.00 0.00 0.00 21 1010.8
20190914150004 25 146 6.4 22.5 0.00 0.00 0.00 20 1010.6
20190914144511 26 145 6.4 29.0 0.00 0.00 0.00 21 1010.4
20190914143006 26 143 9.7 25.7 0.00 0.00 0.00 20 1010.5
20190914141502 26 98 4.8 17.7 0.00 0.00 0.00 21 1010.4
20190914140004 26 145 12.9 22.5 0.00 0.00 0.00 21 1010.5